RYR5YP LIPH-LHBP

Flight info

Callsign RYR5YP
Flight time N/A
Altitude 18000
Route INBUT N503 LAREN Q561 MONFA M859 BARPI/N0436F370 DCT KOPRY DCT ULZAK
Aircraft B38M/M-SDE1FGHILORVWXY/HB1

Departure

Time 2026-04-26 12:35
Airport Treviso Airport (LIPH)

Arrival

Time N/A
Airport Budapest Liszt Ferenc International Airport (LHBP)
Time Latitude Longitude Altitude Speed Heading
2026-04-26 12:05 45.65368 12.20377 65 ft 0 kts 340°
2026-04-26 12:27 45.65358 12.20383 55 ft 4 kts 336°
2026-04-26 12:27 45.65335 12.20398 62 ft 4 kts 355°
2026-04-26 12:27 45.65312 12.20392 63 ft 4 kts 33°
2026-04-26 12:28 45.65297 12.20363 61 ft 4 kts 68°
2026-04-26 12:28 45.65288 12.20331 57 ft 1 kts 67°
2026-04-26 12:28 45.65286 12.20325 57 ft 0 kts 67°
2026-04-26 12:31 45.65286 12.20326 57 ft 1 kts 67°
2026-04-26 12:31 45.65293 12.20347 59 ft 4 kts 68°
2026-04-26 12:31 45.65308 12.20400 63 ft 7 kts 68°
2026-04-26 12:32 45.65329 12.20478 63 ft 10 kts 69°
2026-04-26 12:32 45.65356 12.20582 62 ft 12 kts 69°
2026-04-26 12:32 45.65364 12.20722 57 ft 5 kts 148°
2026-04-26 12:33 45.65327 12.20749 59 ft 5 kts 155°
2026-04-26 12:33 45.65322 12.20752 61 ft 2 kts 155°
2026-04-26 12:33 45.65304 12.20764 61 ft 4 kts 156°
2026-04-26 12:33 45.65268 12.20784 64 ft 7 kts 159°
2026-04-26 12:34 45.65229 12.20799 59 ft 1 kts 197°
2026-04-26 12:34 45.65221 12.20785 65 ft 5 kts 233°
2026-04-26 12:34 45.65191 12.20689 65 ft 17 kts 248°
2026-04-26 12:34 45.65072 12.20245 60 ft 92 kts 249°
2026-04-26 12:35 45.64746 12.19011 70 ft 169 kts 248°
2026-04-26 12:35 45.64308 12.17327 740 ft 194 kts 246°
2026-04-26 12:35 45.63762 12.15372 1314 ft 230 kts 246°
2026-04-26 12:35 45.63072 12.13117 1976 ft 255 kts 244°
2026-04-26 12:36 45.62319 12.10817 2720 ft 260 kts 244°
2026-04-26 12:36 45.61543 12.08476 3387 ft 262 kts 244°
2026-04-26 12:36 45.60765 12.06112 3923 ft 268 kts 244°
2026-04-26 12:36 45.59973 12.03679 4495 ft 271 kts 243°
2026-04-26 12:37 45.59171 12.01208 4971 ft 278 kts 245°
2026-04-26 12:37 45.58364 11.98691 5514 ft 279 kts 244°
2026-04-26 12:37 45.57549 11.96167 6013 ft 282 kts 244°
2026-04-26 12:37 45.56720 11.93615 6557 ft 282 kts 245°
2026-04-26 12:38 45.55893 11.91077 7096 ft 284 kts 245°
2026-04-26 12:38 45.55059 11.88522 7660 ft 284 kts 245°
2026-04-26 12:38 45.54201 11.85961 8176 ft 289 kts 241°
2026-04-26 12:38 45.52928 11.83771 8811 ft 289 kts 218°
2026-04-26 12:39 45.51118 11.82511 9373 ft 294 kts 192°
2026-04-26 12:39 45.49078 11.82432 10017 ft 296 kts 169°
2026-04-26 12:39 45.47144 11.83496 10415 ft 306 kts 146°
2026-04-26 12:39 45.45576 11.85621 10696 ft 318 kts 129°
2026-04-26 12:40 45.44024 11.87936 11094 ft 326 kts 134°
2026-04-26 12:40 45.42419 11.90227 11682 ft 328 kts 134°
2026-04-26 12:40 45.40740 11.92440 12240 ft 330 kts 143°
2026-04-26 12:40 45.38865 11.94360 12753 ft 334 kts 143°
2026-04-26 12:41 45.36994 11.96332 13309 ft 335 kts 143°
2026-04-26 12:41 45.35126 11.98328 13877 ft 337 kts 143°
2026-04-26 12:41 45.33248 12.00351 14376 ft 339 kts 143°
2026-04-26 12:41 45.31365 12.02390 14830 ft 341 kts 142°
2026-04-26 12:42 45.29678 12.04764 15344 ft 344 kts 123°
2026-04-26 12:42 45.28722 12.07865 16000 ft 347 kts 101°
2026-04-26 12:42 45.28596 12.11287 16605 ft 348 kts 82°
2026-04-26 12:42 45.28968 12.14685 17317 ft 349 kts 79°
2026-04-26 12:43 45.29364 12.18083 17947 ft 350 kts 79°
2026-04-26 12:43 45.29774 12.21478 18114 ft 348 kts 78°
2026-04-26 12:43 45.30190 12.24846 18103 ft 346 kts 78°
2026-04-26 12:43 45.30611 12.28212 18104 ft 346 kts 78°
2026-04-26 12:44 45.31033 12.31578 18105 ft 346 kts 78°
2026-04-26 12:44 45.31456 12.34949 18099 ft 347 kts 78°
2026-04-26 12:44 45.31878 12.38321 18102 ft 347 kts 78°
2026-04-26 12:44 45.32300 12.41693 18101 ft 347 kts 78°
2026-04-26 12:45 45.32720 12.45064 18100 ft 347 kts 78°
2026-04-26 12:45 45.33140 12.48439 18110 ft 346 kts 78°
2026-04-26 12:45 45.33717 12.51742 18104 ft 344 kts 71°
2026-04-26 12:45 45.34408 12.55004 18107 ft 344 kts 72°
2026-04-26 12:46 45.35079 12.58267 18104 ft 344 kts 72°
2026-04-26 12:46 45.35740 12.61538 18104 ft 344 kts 72°
2026-04-26 12:46 45.36395 12.64811 18104 ft 344 kts 72°
2026-04-26 12:46 45.37047 12.68090 18104 ft 345 kts 72°
2026-04-26 12:47 45.37697 12.71371 18099 ft 345 kts 72°
2026-04-26 12:47 45.38345 12.74648 18101 ft 345 kts 73°
2026-04-26 12:47 45.38992 12.77928 18102 ft 345 kts 73°
2026-04-26 12:47 45.39640 12.81217 18105 ft 345 kts 73°
2026-04-26 12:48 45.40285 12.84497 18106 ft 344 kts 73°
2026-04-26 12:48 45.40929 12.87777 18103 ft 344 kts 73°
2026-04-26 12:48 45.41572 12.91062 18103 ft 344 kts 73°
2026-04-26 12:48 45.42215 12.94349 18102 ft 344 kts 73°
2026-04-26 12:49 45.42855 12.97628 18107 ft 344 kts 73°
2026-04-26 12:49 45.43486 13.00862 18107 ft 344 kts 73°
2026-04-26 12:49 45.44134 13.04191 18106 ft 344 kts 73°
2026-04-26 12:49 45.44763 13.07432 18105 ft 344 kts 73°
2026-04-26 12:50 45.45400 13.10712 18105 ft 344 kts 73°
2026-04-26 12:50 45.46045 13.14042 18105 ft 344 kts 73°
2026-04-26 12:50 45.46671 13.17284 18107 ft 344 kts 73°
2026-04-26 12:50 45.47306 13.20570 18107 ft 344 kts 73°
2026-04-26 12:51 45.47939 13.23851 18106 ft 344 kts 73°
2026-04-26 12:51 45.48587 13.27133 18102 ft 344 kts 70°
2026-04-26 12:51 45.49648 13.30156 18116 ft 341 kts 58°
2026-04-26 12:51 45.50840 13.33082 18101 ft 342 kts 59°
2026-04-26 12:52 45.52028 13.36017 18104 ft 341 kts 59°
2026-04-26 12:52 45.53216 13.38944 18103 ft 341 kts 59°
2026-04-26 12:52 45.54404 13.41876 18103 ft 341 kts 59°
2026-04-26 12:52 45.55584 13.44814 18104 ft 341 kts 59°
2026-04-26 12:53 45.56761 13.47748 18103 ft 341 kts 59°
2026-04-26 12:53 45.57939 13.50683 18104 ft 341 kts 59°
2026-04-26 12:53 45.58897 13.53773 18093 ft 342 kts 73°
2026-04-26 12:53 45.59560 13.57042 18111 ft 343 kts 72°
2026-04-26 12:54 45.60240 13.60306 18100 ft 343 kts 72°
2026-04-26 12:54 45.60915 13.63562 18102 ft 343 kts 72°
2026-04-26 12:54 45.61589 13.66829 18102 ft 343 kts 72°
2026-04-26 12:54 45.62263 13.70097 18102 ft 343 kts 72°
2026-04-26 12:55 45.62934 13.73361 18099 ft 343 kts 72°
2026-04-26 12:55 45.63604 13.76627 18100 ft 343 kts 72°
2026-04-26 12:55 45.64274 13.79894 18101 ft 343 kts 72°
2026-04-26 12:55 45.64942 13.83160 18105 ft 342 kts 72°
2026-04-26 12:56 45.65610 13.86422 18098 ft 342 kts 72°
2026-04-26 12:56 45.66274 13.89681 18099 ft 342 kts 72°
2026-04-26 12:56 45.66938 13.92942 18094 ft 342 kts 72°
2026-04-26 12:56 45.67602 13.96207 18087 ft 341 kts 72°
2026-04-26 12:57 45.68264 13.99469 18090 ft 342 kts 72°
2026-04-26 12:57 45.68924 14.02728 18084 ft 341 kts 72°
2026-04-26 12:57 45.69584 14.05993 18086 ft 342 kts 72°
2026-04-26 12:58 45.70904 14.12531 18084 ft 342 kts 72°
2026-04-26 12:58 45.71563 14.15804 18078 ft 342 kts 72°
2026-04-26 12:58 45.72221 14.19077 18087 ft 343 kts 72°
2026-04-26 12:58 45.72878 14.22351 18079 ft 342 kts 72°
2026-04-26 12:59 45.73526 14.25590 18084 ft 343 kts 72°
2026-04-26 12:59 45.74182 14.28868 18083 ft 342 kts 72°
2026-04-26 12:59 45.74836 14.32142 18079 ft 342 kts 72°
2026-04-26 12:59 45.75487 14.35412 18080 ft 342 kts 72°
2026-04-26 13:00 45.76140 14.38688 18081 ft 342 kts 72°
2026-04-26 13:00 45.76791 14.41967 18081 ft 342 kts 72°
2026-04-26 13:00 45.77442 14.45249 18084 ft 342 kts 72°
2026-04-26 13:00 45.78093 14.48533 18089 ft 342 kts 72°
2026-04-26 13:01 45.78741 14.51815 18088 ft 342 kts 72°
2026-04-26 13:01 45.79388 14.55094 18090 ft 342 kts 73°
2026-04-26 13:01 45.80026 14.58331 18086 ft 342 kts 72°
2026-04-26 13:01 45.80680 14.61659 18094 ft 342 kts 73°
2026-04-26 13:02 45.81325 14.64941 18090 ft 342 kts 72°
2026-04-26 13:02 45.81969 14.68225 18082 ft 342 kts 72°
2026-04-26 13:02 45.82609 14.71502 18094 ft 342 kts 72°
2026-04-26 13:02 45.83254 14.74800 18090 ft 343 kts 73°
2026-04-26 13:03 45.83896 14.78091 18086 ft 343 kts 73°
2026-04-26 13:03 45.84538 14.81392 18093 ft 343 kts 72°
2026-04-26 13:03 45.85178 14.84685 18097 ft 343 kts 73°
2026-04-26 13:03 45.85818 14.87986 18095 ft 343 kts 73°
2026-04-26 13:04 45.86456 14.91279 18102 ft 343 kts 73°
2026-04-26 13:04 45.87095 14.94583 18092 ft 343 kts 73°
2026-04-26 13:04 45.87731 14.97879 18096 ft 343 kts 72°
2026-04-26 13:04 45.88360 15.01139 18093 ft 343 kts 73°
2026-04-26 13:05 45.89002 15.04481 18097 ft 343 kts 73°
2026-04-26 13:05 45.89627 15.07740 18101 ft 343 kts 72°
2026-04-26 13:05 45.90259 15.11035 18100 ft 343 kts 72°
2026-04-26 13:05 45.90890 15.14334 18095 ft 343 kts 72°
2026-04-26 13:06 45.91521 15.17640 18111 ft 343 kts 72°
2026-04-26 13:06 45.92152 15.20943 18100 ft 343 kts 72°
2026-04-26 13:06 45.92777 15.24228 18107 ft 343 kts 72°
2026-04-26 13:06 45.93409 15.27546 18099 ft 343 kts 72°
2026-04-26 13:07 45.94035 15.30847 18105 ft 343 kts 73°
2026-04-26 13:07 45.94659 15.34146 18099 ft 343 kts 72°
2026-04-26 13:07 45.95284 15.37449 18106 ft 342 kts 72°
2026-04-26 13:07 45.95906 15.40749 18099 ft 342 kts 72°
2026-04-26 13:08 45.96528 15.44051 18106 ft 342 kts 72°
2026-04-26 13:08 45.97151 15.47362 18101 ft 342 kts 73°
2026-04-26 13:08 45.97769 15.50660 18108 ft 342 kts 72°
2026-04-26 13:08 45.98389 15.53965 18102 ft 342 kts 72°
2026-04-26 13:09 45.99007 15.57268 18100 ft 342 kts 73°
2026-04-26 13:09 45.99625 15.60579 18109 ft 343 kts 73°
2026-04-26 13:09 46.00242 15.63888 18105 ft 342 kts 72°
2026-04-26 13:09 46.00858 15.67199 18107 ft 342 kts 73°
2026-04-26 13:10 46.01473 15.70509 18106 ft 342 kts 72°
2026-04-26 13:10 46.02087 15.73821 18118 ft 342 kts 73°
2026-04-26 13:10 46.02699 15.77129 18118 ft 342 kts 72°
2026-04-26 13:10 46.03310 15.80436 18119 ft 342 kts 72°
2026-04-26 13:11 46.03921 15.83746 18127 ft 342 kts 73°
2026-04-26 13:11 46.04531 15.87063 18130 ft 342 kts 73°
2026-04-26 13:11 46.05140 15.90375 18129 ft 342 kts 73°
2026-04-26 13:11 46.05747 15.93684 18137 ft 342 kts 73°
2026-04-26 13:12 46.06353 15.96997 18144 ft 342 kts 73°